Year,Month,Day,Hour,Minute,Value (Times are PST for windspeed in km/hr)
2007,05,06,00,00,6.00
2007,05,06,00,01,5.70
2007,05,06,00,02,5.60
2007,05,06,00,03,6.40
2007,05,06,00,04,4.80
2007,05,06,00,05,5.30
2007,05,06,00,06,5.70
2007,05,06,00,07,6.30
2007,05,06,00,08,5.30
2007,05,06,00,09,5.90
2007,05,06,00,10,6.40
2007,05,06,00,11,4.80
2007,05,06,00,12,4.80
2007,05,06,00,13,5.20
2007,05,06,00,14,3.90
2007,05,06,00,15,4.10
2007,05,06,00,16,4.40
2007,05,06,00,17,5.20
2007,05,06,00,18,5.30
2007,05,06,00,19,5.50
2007,05,06,00,20,5.50
2007,05,06,00,21,4.00
2007,05,06,00,22,5.10
2007,05,06,00,23,5.00
2007,05,06,00,24,3.70
2007,05,06,00,25,5.00
2007,05,06,00,26,5.60
2007,05,06,00,27,5.50
2007,05,06,00,28,5.70
2007,05,06,00,29,5.20
2007,05,06,00,30,4.20
2007,05,06,00,31,4.20
2007,05,06,00,32,2.40
2007,05,06,00,33,2.80
2007,05,06,00,34,3.60
2007,05,06,00,35,3.30
2007,05,06,00,36,2.20
2007,05,06,00,37,4.00
2007,05,06,00,38,3.70
2007,05,06,00,39,6.30
2007,05,06,00,40,4.50
2007,05,06,00,41,4.50
2007,05,06,00,42,4.70
2007,05,06,00,43,4.20
2007,05,06,00,44,5.40
2007,05,06,00,45,3.20
2007,05,06,00,46,3.40
2007,05,06,00,47,3.20
2007,05,06,00,48,4.00
2007,05,06,00,49,3.90
2007,05,06,00,50,5.10
2007,05,06,00,51,3.60
2007,05,06,00,52,2.50
2007,05,06,00,53,2.80
2007,05,06,00,54,3.30
2007,05,06,00,55,3.70
2007,05,06,00,56,3.10
2007,05,06,00,57,1.40
2007,05,06,00,58,0.50
2007,05,06,00,59,0.50
2007,05,06,01,00,0.00
2007,05,06,01,01,0.00
2007,05,06,01,02,0.00
2007,05,06,01,03,0.00
2007,05,06,01,04,0.00
2007,05,06,01,05,0.00
2007,05,06,01,06,0.00
2007,05,06,01,07,1.30
2007,05,06,01,08,1.20
2007,05,06,01,09,1.00
2007,05,06,01,10,0.90
2007,05,06,01,11,1.10
2007,05,06,01,12,1.40
2007,05,06,01,13,2.50
2007,05,06,01,14,3.30
2007,05,06,01,15,2.10
2007,05,06,01,16,1.90
2007,05,06,01,17,2.40
2007,05,06,01,18,1.90
2007,05,06,01,19,1.50
2007,05,06,01,20,2.50
2007,05,06,01,21,1.70
2007,05,06,01,22,3.10
2007,05,06,01,23,1.50
2007,05,06,01,24,2.30
2007,05,06,01,25,0.30
2007,05,06,01,26,1.40
2007,05,06,01,27,1.40
2007,05,06,01,28,1.20
2007,05,06,01,29,0.50
2007,05,06,01,30,0.10
2007,05,06,01,31,0.80
2007,05,06,01,32,0.40
2007,05,06,01,33,0.20
2007,05,06,01,34,0.00
2007,05,06,01,35,0.10
2007,05,06,01,36,2.70
2007,05,06,01,37,1.20
2007,05,06,01,38,1.80
2007,05,06,01,39,1.30
2007,05,06,01,40,1.10
2007,05,06,01,41,3.10
2007,05,06,01,42,2.70
2007,05,06,01,43,2.50
2007,05,06,01,44,2.90
2007,05,06,01,45,1.80
2007,05,06,01,46,1.10
2007,05,06,01,47,3.30
2007,05,06,01,48,2.00
2007,05,06,01,49,3.00
2007,05,06,01,50,2.80
2007,05,06,01,51,3.50
2007,05,06,01,52,3.10
2007,05,06,01,53,4.10
2007,05,06,01,54,3.80
2007,05,06,01,55,3.90
2007,05,06,01,56,4.40
2007,05,06,01,57,5.80
2007,05,06,01,58,5.30
2007,05,06,01,59,5.60
2007,05,06,02,00,5.20
2007,05,06,02,01,4.60
2007,05,06,02,02,3.70
2007,05,06,02,03,2.90
2007,05,06,02,04,2.10
2007,05,06,02,05,3.80
2007,05,06,02,06,3.80
2007,05,06,02,07,3.60
2007,05,06,02,08,4.50
2007,05,06,02,09,3.60
2007,05,06,02,10,4.00
2007,05,06,02,11,3.50
2007,05,06,02,12,4.10
2007,05,06,02,13,2.90
2007,05,06,02,14,3.80
2007,05,06,02,15,3.10
2007,05,06,02,16,3.40
2007,05,06,02,17,2.60
2007,05,06,02,18,2.60
2007,05,06,02,19,3.00
2007,05,06,02,20,2.80
2007,05,06,02,21,3.10
2007,05,06,02,22,1.20
2007,05,06,02,23,0.80
2007,05,06,02,24,0.30
2007,05,06,02,25,1.20
2007,05,06,02,26,1.50
2007,05,06,02,27,2.20
2007,05,06,02,28,2.30
2007,05,06,02,29,1.50
2007,05,06,02,30,2.70
2007,05,06,02,31,4.10
2007,05,06,02,32,2.30
2007,05,06,02,33,2.70
2007,05,06,02,34,3.10
2007,05,06,02,35,3.30
2007,05,06,02,36,2.80
2007,05,06,02,37,3.60
2007,05,06,02,38,2.90
2007,05,06,02,39,2.40
2007,05,06,02,40,1.10
2007,05,06,02,41,0.70
2007,05,06,02,42,1.50
2007,05,06,02,43,2.50
2007,05,06,02,44,0.80
2007,05,06,02,45,0.20
2007,05,06,02,46,1.20
2007,05,06,02,47,1.30
2007,05,06,02,48,1.30
2007,05,06,02,49,0.90
2007,05,06,02,50,1.10
2007,05,06,02,51,0.60
2007,05,06,02,52,2.40
2007,05,06,02,53,1.80
2007,05,06,02,54,1.60
2007,05,06,02,55,1.60
2007,05,06,02,56,1.60
2007,05,06,02,57,1.60
2007,05,06,02,58,1.60
2007,05,06,02,59,2.00
2007,05,06,03,00,2.10
2007,05,06,03,01,1.50
2007,05,06,03,02,1.80
2007,05,06,03,03,1.70
2007,05,06,03,04,2.90
2007,05,06,03,05,3.60
2007,05,06,03,06,2.00
2007,05,06,03,07,3.20
2007,05,06,03,08,3.10
2007,05,06,03,09,3.50
2007,05,06,03,10,4.30
2007,05,06,03,11,2.70
2007,05,06,03,12,3.20
2007,05,06,03,13,3.20
2007,05,06,03,14,3.20
2007,05,06,03,15,3.10
2007,05,06,03,16,1.80
2007,05,06,03,17,1.50
2007,05,06,03,18,1.30
2007,05,06,03,19,0.10
2007,05,06,03,20,0.90
2007,05,06,03,21,0.20
2007,05,06,03,22,0.80
2007,05,06,03,23,2.20
2007,05,06,03,24,0.50
2007,05,06,03,25,0.80
2007,05,06,03,26,0.60
2007,05,06,03,27,2.60
2007,05,06,03,28,2.40
2007,05,06,03,29,2.20
2007,05,06,03,30,1.30
2007,05,06,03,31,1.80
2007,05,06,03,32,1.60
2007,05,06,03,33,2.50
2007,05,06,03,34,2.90
2007,05,06,03,35,2.90
2007,05,06,03,36,2.60
2007,05,06,03,37,1.20
2007,05,06,03,38,2.10
2007,05,06,03,39,1.60
2007,05,06,03,40,3.70
2007,05,06,03,41,3.20
2007,05,06,03,42,3.40
2007,05,06,03,43,4.20
2007,05,06,03,44,3.60
2007,05,06,03,45,3.60
2007,05,06,03,46,4.80
2007,05,06,03,47,4.80
2007,05,06,03,48,5.20
2007,05,06,03,49,5.90
2007,05,06,03,50,5.40
2007,05,06,03,51,6.20
2007,05,06,03,52,5.00
2007,05,06,03,53,5.50
2007,05,06,03,54,4.50
2007,05,06,03,55,4.90
2007,05,06,03,56,4.50
2007,05,06,03,57,4.60
2007,05,06,03,58,5.30
2007,05,06,03,59,4.20
2007,05,06,04,00,3.40
2007,05,06,04,01,1.50
2007,05,06,04,02,2.50
2007,05,06,04,03,1.90
2007,05,06,04,04,2.50
2007,05,06,04,05,3.20
2007,05,06,04,06,3.20
2007,05,06,04,07,3.20
2007,05,06,04,08,3.30
2007,05,06,04,09,4.30
2007,05,06,04,10,4.80
2007,05,06,04,11,3.10
2007,05,06,04,12,3.20
2007,05,06,04,13,3.20
2007,05,06,04,14,3.20
2007,05,06,04,15,2.80
2007,05,06,04,16,3.70
2007,05,06,04,17,3.60
2007,05,06,04,18,4.50
2007,05,06,04,19,2.90
2007,05,06,04,20,3.90
2007,05,06,04,21,3.30
2007,05,06,04,22,3.30
2007,05,06,04,23,2.30
2007,05,06,04,24,3.30
2007,05,06,04,25,3.60
2007,05,06,04,26,3.10
2007,05,06,04,27,2.40
2007,05,06,04,28,2.70
2007,05,06,04,29,0.80
2007,05,06,04,30,0.80
2007,05,06,04,31,0.20
2007,05,06,04,32,0.40
2007,05,06,04,33,1.30
2007,05,06,04,34,0.00
2007,05,06,04,35,0.00
2007,05,06,04,36,0.00
2007,05,06,04,37,0.00
2007,05,06,04,38,0.00
2007,05,06,04,39,0.00
2007,05,06,04,40,1.30
2007,05,06,04,41,0.60
2007,05,06,04,42,0.40
2007,05,06,04,43,0.00
2007,05,06,04,44,0.00
2007,05,06,04,45,0.00
2007,05,06,04,46,0.00
2007,05,06,04,47,0.00
2007,05,06,04,48,0.00
2007,05,06,04,49,0.00
2007,05,06,04,50,1.30
2007,05,06,04,51,1.50
2007,05,06,04,52,1.80
2007,05,06,04,53,2.20
2007,05,06,04,54,0.90
2007,05,06,04,55,1.00
2007,05,06,04,56,0.30
2007,05,06,04,57,0.00
2007,05,06,04,58,0.00
2007,05,06,04,59,0.00
2007,05,06,05,00,0.00
2007,05,06,05,01,0.00
2007,05,06,05,02,0.40
2007,05,06,05,03,1.40
2007,05,06,05,04,2.40
2007,05,06,05,05,1.40
2007,05,06,05,06,1.40
2007,05,06,05,07,2.50
2007,05,06,05,08,2.00
2007,05,06,05,09,2.30
2007,05,06,05,10,1.20
2007,05,06,05,11,2.00
2007,05,06,05,12,2.60
2007,05,06,05,13,3.90
2007,05,06,05,14,3.40
2007,05,06,05,15,2.70
2007,05,06,05,16,2.40
2007,05,06,05,17,3.00
2007,05,06,05,18,1.70
2007,05,06,05,19,2.40
2007,05,06,05,20,1.80
2007,05,06,05,21,1.80
2007,05,06,05,22,1.40
2007,05,06,05,23,1.20
2007,05,06,05,24,0.10
2007,05,06,05,25,0.80
2007,05,06,05,26,1.20
2007,05,06,05,27,0.80
2007,05,06,05,28,2.20
2007,05,06,05,29,0.50
2007,05,06,05,30,0.10
2007,05,06,05,31,0.40
2007,05,06,05,32,0.70
2007,05,06,05,33,0.90
2007,05,06,05,34,2.00
2007,05,06,05,35,1.80
2007,05,06,05,36,0.60
2007,05,06,05,37,2.50
2007,05,06,05,38,3.20
2007,05,06,05,39,2.70
2007,05,06,05,40,2.40
2007,05,06,05,41,2.50
2007,05,06,05,42,4.20
2007,05,06,05,43,3.50
2007,05,06,05,44,3.40
2007,05,06,05,45,3.20
2007,05,06,05,46,2.40
2007,05,06,05,47,2.70
2007,05,06,05,48,2.90
2007,05,06,05,49,3.20
2007,05,06,05,50,3.20
2007,05,06,05,51,3.80
2007,05,06,05,52,4.30
2007,05,06,05,53,4.20
2007,05,06,05,54,4.20
2007,05,06,05,55,2.80
2007,05,06,05,56,4.20
2007,05,06,05,57,5.90
2007,05,06,05,58,4.50
2007,05,06,05,59,3.90
2007,05,06,06,00,3.60
2007,05,06,06,01,4.50
2007,05,06,06,02,3.90
2007,05,06,06,03,4.60
2007,05,06,06,04,4.50
2007,05,06,06,05,4.50
2007,05,06,06,06,5.00
2007,05,06,06,07,5.90
2007,05,06,06,08,3.80
2007,05,06,06,09,2.80
2007,05,06,06,10,2.90
2007,05,06,06,11,3.90
2007,05,06,06,12,3.30
2007,05,06,06,13,3.20
2007,05,06,06,14,2.00
2007,05,06,06,15,1.90
2007,05,06,06,16,1.20
2007,05,06,06,17,0.90
2007,05,06,06,18,3.80
2007,05,06,06,19,5.30
2007,05,06,06,20,4.80
2007,05,06,06,21,4.80
2007,05,06,06,22,4.80
2007,05,06,06,23,4.80
2007,05,06,06,24,4.90
2007,05,06,06,25,3.30
2007,05,06,06,26,4.20
2007,05,06,06,27,5.40
2007,05,06,06,28,4.20
2007,05,06,06,29,3.90
2007,05,06,06,30,5.60
2007,05,06,06,31,5.00
2007,05,06,06,32,6.40
2007,05,06,06,33,3.90
2007,05,06,06,34,4.00
2007,05,06,06,35,5.40
2007,05,06,06,36,5.40
2007,05,06,06,37,6.00
2007,05,06,06,38,6.40
2007,05,06,06,39,5.80
2007,05,06,06,40,6.50
2007,05,06,06,41,5.50
2007,05,06,06,42,5.70
2007,05,06,06,43,3.60
2007,05,06,06,44,3.20
2007,05,06,06,45,3.20
2007,05,06,06,46,4.80
2007,05,06,06,47,4.50
2007,05,06,06,48,5.20
2007,05,06,06,49,4.10
2007,05,06,06,50,4.70
2007,05,06,06,51,5.60
2007,05,06,06,52,4.20
2007,05,06,06,53,3.30
2007,05,06,06,54,5.90
2007,05,06,06,55,3.80
2007,05,06,06,56,4.20
2007,05,06,06,57,2.70
2007,05,06,06,58,3.20
2007,05,06,06,59,3.30
2007,05,06,07,00,5.70
2007,05,06,07,01,6.60
2007,05,06,07,02,6.90
2007,05,06,07,03,6.10
2007,05,06,07,04,4.20
2007,05,06,07,05,5.20
2007,05,06,07,06,4.90
2007,05,06,07,07,3.70
2007,05,06,07,08,5.10
2007,05,06,07,09,5.00
2007,05,06,07,10,3.30
2007,05,06,07,11,4.80
2007,05,06,07,12,3.70
2007,05,06,07,13,5.70
2007,05,06,07,14,4.90
2007,05,06,07,15,3.90
2007,05,06,07,16,6.10
2007,05,06,07,17,4.80
2007,05,06,07,18,4.00
2007,05,06,07,19,3.20
2007,05,06,07,20,4.10
2007,05,06,07,21,3.10
2007,05,06,07,22,4.60
2007,05,06,07,23,3.80
2007,05,06,07,24,5.80
2007,05,06,07,25,4.90
2007,05,06,07,26,2.70
2007,05,06,07,27,4.00
2007,05,06,07,28,5.30
2007,05,06,07,29,2.80
2007,05,06,07,30,3.10
2007,05,06,07,31,4.90
2007,05,06,07,32,4.50
2007,05,06,07,33,4.90
2007,05,06,07,34,5.20
2007,05,06,07,35,3.70
2007,05,06,07,36,2.20
2007,05,06,07,37,1.40
2007,05,06,07,38,2.40
2007,05,06,07,39,0.50
2007,05,06,07,40,1.50
2007,05,06,07,41,2.10
2007,05,06,07,42,2.20
2007,05,06,07,43,2.70
2007,05,06,07,44,2.20
2007,05,06,07,45,1.80
2007,05,06,07,46,2.80
2007,05,06,07,47,3.40
2007,05,06,07,48,5.30
2007,05,06,07,49,3.70
2007,05,06,07,50,2.90
2007,05,06,07,51,2.90
2007,05,06,07,52,4.20
2007,05,06,07,53,3.60
2007,05,06,07,54,3.50
2007,05,06,07,55,4.70
2007,05,06,07,56,3.30
2007,05,06,07,57,1.50
2007,05,06,07,58,0.00
2007,05,06,07,59,0.40
2007,05,06,08,00,3.30
2007,05,06,08,01,2.80
2007,05,06,08,02,3.10
2007,05,06,08,03,3.20
2007,05,06,08,04,3.20
2007,05,06,08,05,3.20
2007,05,06,08,06,5.40
2007,05,06,08,07,3.50
2007,05,06,08,08,3.90
2007,05,06,08,09,5.30
2007,05,06,08,10,4.80
2007,05,06,08,11,3.90
2007,05,06,08,12,5.00
2007,05,06,08,13,4.60
2007,05,06,08,14,5.00
2007,05,06,08,15,2.30
2007,05,06,08,16,5.00
2007,05,06,08,17,5.00
2007,05,06,08,18,3.10
2007,05,06,08,19,4.10
2007,05,06,08,20,5.70
2007,05,06,08,21,7.40
2007,05,06,08,22,5.80
2007,05,06,08,23,4.20
2007,05,06,08,24,2.80
2007,05,06,08,25,4.60
2007,05,06,08,26,5.40
2007,05,06,08,27,5.10
2007,05,06,08,28,4.70
2007,05,06,08,29,2.00
2007,05,06,08,30,1.90
2007,05,06,08,31,5.10
2007,05,06,08,32,5.30
2007,05,06,08,33,5.00
2007,05,06,08,34,6.20
2007,05,06,08,35,4.30
2007,05,06,08,36,3.40
2007,05,06,08,37,4.40
2007,05,06,08,38,4.80
2007,05,06,08,39,4.70
2007,05,06,08,40,2.30
2007,05,06,08,41,5.20
2007,05,06,08,42,4.50
2007,05,06,08,43,4.50
2007,05,06,08,44,2.90
2007,05,06,08,45,3.80
2007,05,06,08,46,2.70
2007,05,06,08,47,3.10
2007,05,06,08,48,4.00
2007,05,06,08,49,1.90
2007,05,06,08,50,3.60
2007,05,06,08,51,4.80
2007,05,06,08,52,5.50
2007,05,06,08,53,4.90
2007,05,06,08,54,4.00
2007,05,06,08,55,6.30
2007,05,06,08,56,5.60
2007,05,06,08,57,7.10
2007,05,06,08,58,5.60
2007,05,06,08,59,3.90
2007,05,06,09,00,4.80
2007,05,06,09,01,4.80
2007,05,06,09,02,1.10
2007,05,06,09,03,3.10
2007,05,06,09,04,3.30
2007,05,06,09,05,5.60
2007,05,06,09,06,4.20
2007,05,06,09,07,5.40
2007,05,06,09,08,4.40
2007,05,06,09,09,5.50
2007,05,06,09,10,6.00
2007,05,06,09,11,5.00
2007,05,06,09,12,5.30
2007,05,06,09,13,7.10
2007,05,06,09,14,6.00
2007,05,06,09,15,6.00
2007,05,06,09,16,4.00
2007,05,06,09,17,5.50
2007,05,06,09,18,6.40
2007,05,06,09,19,6.40
2007,05,06,09,20,6.40
2007,05,06,09,21,4.90
2007,05,06,09,22,2.20
2007,05,06,09,23,5.60
2007,05,06,09,24,6.20
2007,05,06,09,25,5.90
2007,05,06,09,26,6.60
2007,05,06,09,27,6.20
2007,05,06,09,28,7.20
2007,05,06,09,29,4.60
2007,05,06,09,30,2.90
2007,05,06,09,31,4.20
2007,05,06,09,32,2.90
2007,05,06,09,33,5.70
2007,05,06,09,34,6.90
2007,05,06,09,35,6.30
2007,05,06,09,36,6.00
2007,05,06,09,37,4.90
2007,05,06,09,38,5.90
2007,05,06,09,39,6.90
2007,05,06,09,40,5.60
2007,05,06,09,41,4.40
2007,05,06,09,42,5.70
2007,05,06,09,43,3.60
2007,05,06,09,44,2.70
2007,05,06,09,45,3.20
2007,05,06,09,46,4.90
2007,05,06,09,47,6.90
2007,05,06,09,48,6.00
2007,05,06,09,49,5.80
2007,05,06,09,50,8.10
2007,05,06,09,51,6.20
2007,05,06,09,52,6.20
2007,05,06,09,53,5.20
2007,05,06,09,54,5.60
2007,05,06,09,55,6.70
2007,05,06,09,56,5.20
2007,05,06,09,57,3.40
2007,05,06,09,58,1.80
2007,05,06,09,59,3.90
2007,05,06,10,00,5.20
2007,05,06,10,01,5.80
2007,05,06,10,02,6.10
2007,05,06,10,03,4.00
2007,05,06,10,04,5.70
2007,05,06,10,05,4.90
2007,05,06,10,06,5.00
2007,05,06,10,07,3.20
2007,05,06,10,08,5.70
2007,05,06,10,09,6.80
2007,05,06,10,10,8.10
2007,05,06,10,11,6.60
2007,05,06,10,12,6.90
2007,05,06,10,13,5.00
2007,05,06,10,14,6.00
2007,05,06,10,15,5.10
2007,05,06,10,16,5.30
2007,05,06,10,17,6.70
2007,05,06,10,18,4.50
2007,05,06,10,19,5.30
2007,05,06,10,20,6.00
2007,05,06,10,21,5.70
2007,05,06,10,22,7.00
2007,05,06,10,23,7.90
2007,05,06,10,24,6.20
2007,05,06,10,25,5.10
2007,05,06,10,26,4.80
2007,05,06,10,27,6.40
2007,05,06,10,28,5.00
2007,05,06,10,29,7.70
2007,05,06,10,30,5.60
2007,05,06,10,31,5.70
2007,05,06,10,32,4.40
2007,05,06,10,33,5.10
2007,05,06,10,34,6.00
2007,05,06,10,35,5.90
2007,05,06,10,36,4.80
2007,05,06,10,37,5.60
2007,05,06,10,38,6.60
2007,05,06,10,39,5.70
2007,05,06,10,40,6.20
2007,05,06,10,41,5.50
2007,05,06,10,42,7.20
2007,05,06,10,43,7.10
2007,05,06,10,44,8.10
2007,05,06,10,45,4.90
2007,05,06,10,46,4.20
2007,05,06,10,47,2.80
2007,05,06,10,48,5.40
2007,05,06,10,49,5.00
2007,05,06,10,50,5.20
2007,05,06,10,51,5.20
2007,05,06,10,52,4.60
2007,05,06,10,53,6.90
2007,05,06,10,54,5.90
2007,05,06,10,55,6.10
2007,05,06,10,56,8.10
2007,05,06,10,57,8.10
2007,05,06,10,58,8.10
2007,05,06,10,59,8.10
2007,05,06,11,00,8.10
2007,05,06,11,01,7.80
2007,05,06,11,02,6.60
2007,05,06,11,03,6.50
2007,05,06,11,04,6.60
2007,05,06,11,05,6.40
2007,05,06,11,06,6.80
2007,05,06,11,07,6.60
2007,05,06,11,08,5.60
2007,05,06,11,09,5.70
2007,05,06,11,10,4.50
2007,05,06,11,11,3.50
2007,05,06,11,12,4.50
2007,05,06,11,13,5.10
2007,05,06,11,14,5.30
2007,05,06,11,15,5.00
2007,05,06,11,16,4.70
2007,05,06,11,17,4.70
2007,05,06,11,18,4.50
2007,05,06,11,19,4.60
2007,05,06,11,20,6.30
2007,05,06,11,21,4.10
2007,05,06,11,22,5.00
2007,05,06,11,23,5.50
2007,05,06,11,24,4.00
2007,05,06,11,25,3.60
2007,05,06,11,26,3.90
2007,05,06,11,27,5.20
2007,05,06,11,28,3.50
2007,05,06,11,29,3.60
2007,05,06,11,30,2.50
2007,05,06,11,31,5.10
2007,05,06,11,32,3.10
2007,05,06,11,33,3.70
2007,05,06,11,34,2.00
2007,05,06,11,35,2.70
2007,05,06,11,36,3.20
2007,05,06,11,37,4.90
2007,05,06,11,38,4.90
2007,05,06,11,39,2.90
2007,05,06,11,40,2.30
2007,05,06,11,41,3.70
2007,05,06,11,42,3.10
2007,05,06,11,43,5.80
2007,05,06,11,44,5.20
2007,05,06,11,45,4.90
2007,05,06,11,46,7.40
2007,05,06,11,47,4.00
2007,05,06,11,48,4.10
2007,05,06,11,49,5.50
2007,05,06,11,50,5.20
2007,05,06,11,51,5.70
2007,05,06,11,52,4.80
2007,05,06,11,53,2.80
2007,05,06,11,54,3.20
2007,05,06,11,55,4.30
2007,05,06,11,56,5.40
2007,05,06,11,57,3.30
2007,05,06,11,58,1.20
2007,05,06,11,59,1.80
2007,05,06,12,00,4.90
2007,05,06,12,01,5.00
2007,05,06,12,02,4.80
2007,05,06,12,03,4.80
2007,05,06,12,04,6.30
2007,05,06,12,05,6.30
2007,05,06,12,06,7.00
2007,05,06,12,07,5.70
2007,05,06,12,08,6.10
2007,05,06,12,09,4.80
2007,05,06,12,10,4.80
2007,05,06,12,11,4.90
2007,05,06,12,12,5.80
2007,05,06,12,13,3.30
2007,05,06,12,14,2.90
2007,05,06,12,15,1.80
2007,05,06,12,16,4.10
2007,05,06,12,17,2.60
2007,05,06,12,18,1.00
2007,05,06,12,19,3.20
2007,05,06,12,20,2.20
2007,05,06,12,21,2.10
2007,05,06,12,22,4.30
2007,05,06,12,23,5.40
2007,05,06,12,24,5.90
2007,05,06,12,25,6.50
2007,05,06,12,26,3.00
2007,05,06,12,27,3.40
2007,05,06,12,28,3.90
2007,05,06,12,29,3.20
2007,05,06,12,30,3.10
2007,05,06,12,31,1.20
2007,05,06,12,32,2.40
2007,05,06,12,33,3.90
2007,05,06,12,34,5.20
2007,05,06,12,35,5.50
2007,05,06,12,36,6.60
2007,05,06,12,37,4.90
2007,05,06,12,38,4.70
2007,05,06,12,39,5.80
2007,05,06,12,40,3.60
2007,05,06,12,41,3.00
2007,05,06,12,42,5.60
2007,05,06,12,43,4.30
2007,05,06,12,44,3.50
2007,05,06,12,45,4.40
2007,05,06,12,46,5.00
2007,05,06,12,47,3.90
2007,05,06,12,48,5.80
2007,05,06,12,49,3.70
2007,05,06,12,50,4.50
2007,05,06,12,51,5.50
2007,05,06,12,52,3.10
2007,05,06,12,53,1.80
2007,05,06,12,54,2.10
2007,05,06,12,55,1.60
2007,05,06,12,56,1.60
2007,05,06,12,57,1.60
2007,05,06,12,58,1.00
2007,05,06,12,59,2.40
2007,05,06,13,00,2.60
2007,05,06,13,01,3.40
2007,05,06,13,02,3.40
2007,05,06,13,03,1.40
2007,05,06,13,04,0.50
2007,05,06,13,05,2.20
2007,05,06,13,06,1.80
2007,05,06,13,07,2.60
2007,05,06,13,08,4.80
2007,05,06,13,09,4.80
2007,05,06,13,10,4.50
2007,05,06,13,11,4.20
2007,05,06,13,12,4.60
2007,05,06,13,13,5.00
2007,05,06,13,14,4.80
2007,05,06,13,15,3.40
2007,05,06,13,16,4.30
2007,05,06,13,17,3.60
2007,05,06,13,18,3.30
2007,05,06,13,19,4.40
2007,05,06,13,20,0.80
2007,05,06,13,21,3.60
2007,05,06,13,22,4.30
2007,05,06,13,23,2.20
2007,05,06,13,24,2.00
2007,05,06,13,25,2.80
2007,05,06,13,26,4.10
2007,05,06,13,27,3.80
2007,05,06,13,28,2.00
2007,05,06,13,29,5.50
2007,05,06,13,30,0.90
2007,05,06,13,31,0.70
2007,05,06,13,32,1.50
2007,05,06,13,33,2.20
2007,05,06,13,34,0.30
2007,05,06,13,35,2.60
2007,05,06,13,36,2.20
2007,05,06,13,37,5.30
2007,05,06,13,38,4.80
2007,05,06,13,39,3.60
2007,05,06,13,40,3.70
2007,05,06,13,41,2.40
2007,05,06,13,42,1.60
2007,05,06,13,43,1.30
2007,05,06,13,44,5.40
2007,05,06,13,45,2.60
2007,05,06,13,46,4.80
2007,05,06,13,47,2.90
2007,05,06,13,48,3.10
2007,05,06,13,49,5.00
2007,05,06,13,50,1.90
2007,05,06,13,51,1.00
2007,05,06,13,52,4.20
2007,05,06,13,53,4.10
2007,05,06,13,54,3.60
2007,05,06,13,55,4.20
2007,05,06,13,56,4.10
2007,05,06,13,57,1.00
2007,05,06,13,58,0.30
2007,05,06,13,59,1.30
2007,05,06,14,00,4.00
2007,05,06,14,01,3.40
2007,05,06,14,02,3.10
2007,05,06,14,03,1.20
2007,05,06,14,04,0.20
2007,05,06,14,05,0.00
2007,05,06,14,06,0.00
2007,05,06,14,07,0.00
2007,05,06,14,08,0.40
2007,05,06,14,09,1.30
2007,05,06,14,10,1.90
2007,05,06,14,11,1.80
2007,05,06,14,12,3.10
2007,05,06,14,13,3.40
2007,05,06,14,14,1.10
2007,05,06,14,15,2.50
2007,05,06,14,16,2.50
2007,05,06,14,17,4.10
2007,05,06,14,18,2.30
2007,05,06,14,19,1.80
2007,05,06,14,20,0.30
2007,05,06,14,21,3.10
2007,05,06,14,22,1.60
2007,05,06,14,23,1.80
2007,05,06,14,24,2.20
2007,05,06,14,25,1.30
2007,05,06,14,26,1.80
2007,05,06,14,27,1.90
2007,05,06,14,28,2.60
2007,05,06,14,29,4.10
2007,05,06,14,30,2.00
2007,05,06,14,31,1.30
2007,05,06,14,32,3.10
2007,05,06,14,33,4.10
2007,05,06,14,34,0.30
2007,05,06,14,35,0.70
2007,05,06,14,36,1.90
2007,05,06,14,37,2.20
2007,05,06,14,38,1.80
2007,05,06,14,39,2.10
2007,05,06,14,40,4.40
2007,05,06,14,41,4.20
2007,05,06,14,42,4.10
2007,05,06,14,43,1.30
2007,05,06,14,44,0.40
2007,05,06,14,45,1.40
2007,05,06,14,46,0.80
2007,05,06,14,47,2.30
2007,05,06,14,48,2.40
2007,05,06,14,49,3.60
2007,05,06,14,50,1.00
2007,05,06,14,51,1.40
2007,05,06,14,52,2.60
2007,05,06,14,53,0.70
2007,05,06,14,54,2.20
2007,05,06,14,55,2.00
2007,05,06,14,56,0.70
2007,05,06,14,57,1.90
2007,05,06,14,58,1.60
2007,05,06,14,59,1.40
2007,05,06,15,00,0.90
2007,05,06,15,01,0.70
2007,05,06,15,02,0.40
2007,05,06,15,03,2.40
2007,05,06,15,04,0.20
2007,05,06,15,05,1.50
2007,05,06,15,06,0.90
2007,05,06,15,07,0.10
2007,05,06,15,08,0.60
2007,05,06,15,09,2.10
2007,05,06,15,10,0.90
2007,05,06,15,11,1.00
2007,05,06,15,12,3.70
2007,05,06,15,13,0.60
2007,05,06,15,14,0.30
2007,05,06,15,15,0.40
2007,05,06,15,16,2.20
2007,05,06,15,17,4.60
2007,05,06,15,18,5.40
2007,05,06,15,19,6.40
2007,05,06,15,20,6.00
2007,05,06,15,21,5.40
2007,05,06,15,22,6.00
2007,05,06,15,23,6.00
2007,05,06,15,24,4.20
2007,05,06,15,25,4.10
2007,05,06,15,26,4.90
2007,05,06,15,27,3.40
2007,05,06,15,28,4.50
2007,05,06,15,29,1.20
2007,05,06,15,30,0.00
2007,05,06,15,31,0.00
2007,05,06,15,32,0.50
2007,05,06,15,33,0.00
2007,05,06,15,34,3.10
2007,05,06,15,35,3.50
2007,05,06,15,36,1.90
2007,05,06,15,37,0.80
2007,05,06,15,38,2.60
2007,05,06,15,39,3.00
2007,05,06,15,40,3.70
2007,05,06,15,41,3.00
2007,05,06,15,42,1.30
2007,05,06,15,43,1.70
2007,05,06,15,44,2.70
2007,05,06,15,45,3.90
2007,05,06,15,46,2.50
2007,05,06,15,47,3.80
2007,05,06,15,48,5.20
2007,05,06,15,49,4.20
2007,05,06,15,50,5.80
2007,05,06,15,51,5.30
2007,05,06,15,52,4.70
2007,05,06,15,53,3.80
2007,05,06,15,54,3.60
2007,05,06,15,55,3.80
2007,05,06,15,56,1.80
2007,05,06,15,57,1.70
2007,05,06,15,58,2.80
2007,05,06,15,59,0.70
2007,05,06,16,00,0.80
2007,05,06,16,01,0.10
2007,05,06,16,02,0.00
2007,05,06,16,03,0.70
2007,05,06,16,04,2.20
2007,05,06,16,05,1.50
2007,05,06,16,06,0.00
2007,05,06,16,07,3.40
2007,05,06,16,08,3.20
2007,05,06,16,09,3.90
2007,05,06,16,10,4.50
2007,05,06,16,11,2.60
2007,05,06,16,12,4.90
2007,05,06,16,13,4.30
2007,05,06,16,14,1.90
2007,05,06,16,15,7.10
2007,05,06,16,16,7.50
2007,05,06,16,17,7.00
2007,05,06,16,18,7.90
2007,05,06,16,19,6.50
2007,05,06,16,20,8.10
2007,05,06,16,21,7.50
2007,05,06,16,22,9.60
2007,05,06,16,23,9.60
2007,05,06,16,24,9.60
2007,05,06,16,25,7.60
2007,05,06,16,26,5.70
2007,05,06,16,27,8.00
2007,05,06,16,28,7.30
2007,05,06,16,29,7.40
2007,05,06,16,30,8.10
2007,05,06,16,31,4.40
2007,05,06,16,32,4.20
2007,05,06,16,33,6.00
2007,05,06,16,34,2.80
2007,05,06,16,35,1.50
2007,05,06,16,36,1.70
2007,05,06,16,37,1.70
2007,05,06,16,38,4.80
2007,05,06,16,39,4.80
2007,05,06,16,40,4.80
2007,05,06,16,41,4.80
2007,05,06,16,42,4.80
2007,05,06,16,43,4.80
2007,05,06,16,44,4.80
2007,05,06,16,45,4.80
2007,05,06,16,46,4.80
2007,05,06,16,47,5.30
2007,05,06,16,48,6.10
2007,05,06,16,49,6.50
2007,05,06,16,50,6.00
2007,05,06,16,51,6.60
2007,05,06,16,52,6.20
2007,05,06,16,53,7.40
2007,05,06,16,54,6.20
2007,05,06,16,55,4.30
2007,05,06,16,56,4.30
2007,05,06,16,57,3.10
2007,05,06,16,58,5.30
2007,05,06,16,59,5.10
2007,05,06,17,00,6.90
2007,05,06,17,01,4.80
2007,05,06,17,02,3.00
2007,05,06,17,03,4.00
2007,05,06,17,04,4.60
2007,05,06,17,05,4.40
2007,05,06,17,06,5.00
2007,05,06,17,07,4.90
2007,05,06,17,08,2.30
2007,05,06,17,09,0.60
2007,05,06,17,10,1.60
2007,05,06,17,11,2.40
2007,05,06,17,12,7.90
2007,05,06,17,13,6.50
2007,05,06,17,14,3.40
2007,05,06,17,15,4.20
2007,05,06,17,16,4.40
2007,05,06,17,17,5.00
2007,05,06,17,18,6.10
2007,05,06,17,19,4.10
2007,05,06,17,20,5.20
2007,05,06,17,21,2.30
2007,05,06,17,22,2.40
2007,05,06,17,23,4.90
2007,05,06,17,24,6.50
2007,05,06,17,25,5.20
2007,05,06,17,26,5.00
2007,05,06,17,27,1.80
2007,05,06,17,28,2.80
2007,05,06,17,29,3.50
2007,05,06,17,30,3.40
2007,05,06,17,31,3.90
2007,05,06,17,32,1.60
2007,05,06,17,33,2.30
2007,05,06,17,34,3.60
2007,05,06,17,35,1.50
2007,05,06,17,36,2.30
2007,05,06,17,37,3.30
2007,05,06,17,38,1.50
2007,05,06,17,39,0.60
2007,05,06,17,40,1.40
2007,05,06,17,41,3.20
2007,05,06,17,42,2.50
2007,05,06,17,43,4.50
2007,05,06,17,44,2.20
2007,05,06,17,45,2.40
2007,05,06,17,46,4.80
2007,05,06,17,47,4.00
2007,05,06,17,48,4.00
2007,05,06,17,49,3.50
2007,05,06,17,50,1.20
2007,05,06,17,51,4.20
2007,05,06,17,52,4.80
2007,05,06,17,53,3.40
2007,05,06,17,54,0.80
2007,05,06,17,55,2.40
2007,05,06,17,56,5.20
2007,05,06,17,57,2.80
2007,05,06,17,58,5.40
2007,05,06,17,59,3.60
2007,05,06,18,00,2.40
2007,05,06,18,01,3.90
2007,05,06,18,02,5.70
2007,05,06,18,03,5.20
2007,05,06,18,04,4.80
2007,05,06,18,05,4.10
2007,05,06,18,06,1.80